Weather History for 71244 - September, 2013

Change the Weather History Date:

Friday, September 27, 2013

  Actual Average Record
Temperature  
Mean Temperature 42 °F -  
Max Temperature 59 °F - - ()
Min Temperature 26 °F - - ()
Degree Days  
Heating Degree Days 22    
Moisture  
Dew Point 27 °F    
Average Humidity 58    
Maximum Humidity 88    
Minimum Humidity 20    
Precipitation  
Precipitation 0.00 in - - ()
Sea Level Pressure  
Sea Level Pressure 29.88 in    
Wind  
Wind Speed 9 mph ()    
Max Wind Speed 20 mph    
Max Gust Speed 28 mph    
T = Trace of Precipitation, MM = Missing Value Source: Averaged Metar Reports

Daily Weather History Graph

Daily Weather History Graph

Search for Another Location

Airport or City:

Trip Planner

Search our weather history database for the weather conditions in past years. The results will help you decide how hot, cold, wet, or windy it might be!

Date:

Astronomy

Sep. 27, 2013 Rise Set
Actual Time 7:22 AM MDT 7:14 PM MDT
Civil Twilight 6:50 AM MDT 7:46 PM MDT
Nautical Twilight 6:13 AM MDT 8:23 PM MDT
Astronomical Twilight 5:35 AM MDT 9:01 PM MDT
Moon No Moon Rise 3:23 PM MDT (9/27)
Length of Visible Light 12h 55m
Length of Day
11h 52m
Last Quarter, 44% of the Moon is Illuminated
Sep 27
Last Quarter
Oct 4
New
Oct 11
First Quarter
Oct 18
Full
Oct 26
Last Quarter

Hourly Weather History & Observations

Time (MDT) Temp. Windchill Dew Point Humidity Pressure Visibility Wind Dir Wind Speed Gust Speed Precip Events Conditions
12:00 AM 32 °F - 28 °F 81% 30.00 in - WNW 9.2 mph - -  
12:00 AM 31.8 °F 23.9 °F 28.4 °F 87% 30.00 in - WNW 9.2 mph - N/A   Unknown
1:00 AM 31.8 °F 22.8 °F 27.7 °F 85% 29.97 in - WNW 11.5 mph - N/A   Unknown
2:00 AM 29.8 °F 22.2 °F 26.1 °F 86% 29.97 in - WNW 8.1 mph - N/A   Unknown
3:00 AM 28.8 °F 23.7 °F 25.2 °F 86% 29.98 in - WNW 4.6 mph - N/A   Unknown
4:00 AM 27.5 °F 22.2 °F 24.4 °F 88% 29.98 in - WSW 4.6 mph - N/A   Unknown
5:00 AM 27.9 °F 19.8 °F 24.3 °F 86% 29.96 in - WNW 8.1 mph - N/A   Unknown
6:00 AM 28 °F - 24 °F 79% 29.95 in - WSW 6.9 mph - -  
6:00 AM 27.7 °F 20.4 °F 24.1 °F 86% 29.95 in - WSW 6.9 mph - N/A   Unknown
7:00 AM 28.9 °F 22.8 °F 24.1 °F 82% 29.95 in - WSW 5.8 mph - N/A   Unknown
8:00 AM 30.7 °F 24.9 °F 25.3 °F 80% 29.95 in - WSW 5.8 mph - N/A   Unknown
9:00 AM 38.5 °F - 29.8 °F 71% 29.94 in - SW 2.3 mph - N/A   Unknown
10:00 AM 48.9 °F - 31.6 °F 51% 29.90 in - West 11.5 mph - N/A   Unknown
11:00 AM 54.7 °F - 26.6 °F 34% 29.86 in - West 17.3 mph 24.2 mph N/A   Unknown
12:00 PM 56 °F - 27 °F 20% 29.84 in - West 17.3 mph - -  
12:00 PM 56.3 °F - 26.6 °F 32% 29.84 in - West 17.3 mph - N/A   Unknown
1:00 PM 58.3 °F - 25.2 °F 28% 29.82 in - West 15.0 mph 21.9 mph N/A   Unknown
2:00 PM 59.5 °F - 26.2 °F 28% 29.80 in - WNW 17.3 mph 27.6 mph N/A   Unknown
3:00 PM 59.7 °F - 25.0 °F 26% 29.80 in - WNW 18.4 mph 25.3 mph N/A   Unknown
4:00 PM 57.9 °F - 24.1 °F 27% 29.79 in - WNW 19.6 mph 25.3 mph N/A   Unknown
5:00 PM 57.0 °F - 26.4 °F 31% 29.81 in - West 18.4 mph 25.3 mph N/A   Unknown
6:00 PM 53 °F - 26 °F 23% 29.82 in - WNW 16.1 mph - -  
6:00 PM 52.9 °F - 26.4 °F 36% 29.82 in - WNW 16.1 mph 21.9 mph N/A   Unknown
7:00 PM 48.0 °F - 29.3 °F 48% 29.84 in - West 11.5 mph - N/A   Unknown
8:00 PM 47.1 °F - 30.6 °F 53% 29.82 in - West 10.4 mph - N/A   Unknown
9:00 PM 45.3 °F 41.6 °F 32.0 °F 60% 29.80 in - SW 6.9 mph - N/A   Unknown
10:00 PM 44.4 °F 38.2 °F 31.6 °F 61% 29.78 in - West 12.7 mph - N/A   Unknown
11:00 PM 41.2 °F 36.0 °F 31.5 °F 68% 29.78 in - WSW 8.1 mph - N/A   Unknown